Tracking 20370 objects as of 20-Feb-2020
HD Live streaming from Space Station
objects crossing your sky now
Track the group of recently launched Starlink satellites

COSMOS 982

Track COSMOS 982 now!
10-day predictions
COSMOS 982 is classified as:


NORAD ID: 10589
Int'l Code: 1978-005G
Perigee: 1,471.2 km
Apogee: 1,521.7 km
Inclination: 74.0 °
Period: 115.7 minutes
Semi major axis: 7867 km
RCS: 0.7047 m2 (medium)
Launch date: January 10, 1978
Source: Commonwealth of Independent States (former USSR) (CIS)
Launch site: PLESETSK MISSILE AND SPACE COMPLEX (PKMTR)
aabbcc
Your satellite tracking list
Your tracking list is empty




NASA's NSSDC Master Catalog

Two Line Element Set (TLE):
1 10589U 78005G   20050.41511222 -.00000010 +00000-0 +41434-4 0  9990
2 10589 074.0323 022.6255 0032095 097.1493 071.8468 12.44099463912321
Source of the keplerian elements: AFSPC